Location: Unspecified
(33.6682°S, 0.0000°E)
Time: 19:16:07
(UTC+00:00)

Tiros 1 - Visible Passes

Search period start: 24 June 2019 00:00
Search period end: 04 July 2019 00:00
Orbit: 631 x 664 km, 48.4° (Epoch: 23 June)

Date Brightness Start Highest point End Pass type
(mag) Time Alt. Az. Time Alt. Az. Time Alt. Az.
24 Jun 9.0 17:38:26 10° WSW 17:42:52 36° NW 17:47:16 10° NNE visible
25 Jun 10.3 18:06:02 10° W 18:08:36 14° NW 18:11:09 10° NNW visible
29 Jun 10.4 06:10:24 10° NNE 06:12:24 13° NE 06:14:26 10° ENE visible
30 Jun 9.2 06:33:57 10° NNW 06:38:07 33° NE 06:42:20 10° ESE visible
01 Jul 10.4 05:21:05 10° NE 05:22:28 11° NE 05:23:51 10° ENE visible
02 Jul 9.1 05:44:08 10° NNW 05:48:09 30° NE 05:52:14 10° ESE visible
03 Jul 7.4 06:09:25 10° NW 06:14:03 75° NE 06:18:47 10° SE visible
